Tracking 28790 objects as of 18-Apr-2024
HD Live streaming from Space Station
objects crossing your sky now

DMSP 5D-3 F18 DEB

Track DMSP 5D-3 F18 DEB now!
10-day predictions


NORAD ID: 35954
Int'l Code: 2009-057D
Perigee: 822.4 km
Apogee: 826.9 km
Inclination: 98.6 °
Period: 101.2 minutes
Semi major axis: 7195 km
RCS: 0.06 m2 (small)
Launch date: October 18, 2009
Source: United States (US)
Launch site: AIR FORCE WESTERN TEST RANGE (AFWTR)

Note: This is SATELLITE DEBRIS
Your satellite tracking list
Your tracking list is empty




NASA's NSSDC Master Catalog

Two Line Element Set (TLE):
1 35954U 09057D   24108.90789625  .00006315  00000-0  28577-2 0  9994
2 35954  98.5841 102.2846 0003134 254.9243 165.1347 14.22317933749705
Source of the keplerian elements: AFSPC